Location: Asheville, NC
(35.6000°N, 82.5500°W)
Time: 20:25:35
(UTC-04:00)

DOVE 4 - Pass Details

Date: 10 March 2018
Orbit: 589 x 802 km, 97.7° (Epoch: 20 June)

Event Time Altitude Azimuth Distance (km) Brightness Sun altitude
Rises 03:50:53 0° 33° (NNE) 3,301 ? -36.0°
Reaches altitude 10° 03:54:19 10° 56° (NE) 2,345 ? -35.4°
Maximum altitude 03:57:14 15° 91° (E) 1,986 ? -34.9°
Drops below altitude 10° 04:00:04 10° 125° (SE) 2,281 ? -34.3°
Sets 04:03:19 0° 148° (SSE) 3,159 ? -33.7°
